Simultaneous Nadir Overpasses (SNOs) Predictions

Prediction of SNOs between GOES-14 and NOAA-20 Satellite Orbit:

Table of predicted SNOs for the next 14.0 days since TLE Epoch: 8/20/2022
Index Date Time (GOES-14) GOES-14 Lat,Lon NOAA-20 Lat,Lon Distance(km) Time Diff (sec)
1 08/20/2022 20:33:12 0.47,-104.65 -0.15,-107.36 309.68 80
2 08/21/2022 20:17:09 0.47,-104.65 0.90,-102.84 206.88 80
3 08/23/2022 08:38:57 -0.49,-104.43 0.31,-108.11 418.76 80
4 08/24/2022 08:17:33 -0.49,-104.42 -0.68,-103.58 96.02 80
5 08/25/2022 20:39:31 0.50,-104.62 -0.44,-108.90 487.51 80
6 08/26/2022 20:23:26 0.50,-104.63 0.55,-104.37 29.27 80
7 08/29/2022 08:26:30 -0.50,-104.43 -0.34,-105.11 77.39 80
8 08/30/2022 08:05:06 -0.50,-104.42 -1.33,-100.58 437.57 80
9 08/31/2022 20:27:04 0.51,-104.61 0.22,-105.90 146.97 80
10 09/01/2022 20:11:00 0.50,-104.62 1.22,-101.37 369.70 80
